Gwinner, ND

1:34 AM CDT on April 30, 2017 (GMT -0500)
Gwinner-melroe

Weather History for KGWR - December, 2011

Change the Weather History Date:

Friday, December 30, 2011

  Actual Average (KP67) Record (KP67)
Temperature  
Mean Temperature 30 °F -  
Max Temperature 33 °F 15 °F 35 °F (1997)
Min Temperature 28 °F 1 °F -4 °F (1996)
Degree Days  
Heating Degree Days 34    
Moisture  
Dew Point 32 °F    
Average Humidity 100    
Maximum Humidity 100    
Minimum Humidity 100    
Precipitation  
Precipitation 0.00 in - - ()
Sea Level Pressure  
Sea Level Pressure 29.67 in    
Wind  
Wind Speed 2 mph (SW)    
Max Wind Speed 12 mph    
Max Gust Speed -    
Visibility 5 miles    
Events      
Averages and records for this station are not official NWS values.
T = Trace of Precipitation, MM = Missing Value Source: NWS Daily Summary

Daily Weather History Graph

Daily Weather History Graph

Search for Another Location

Airport or City:

Trip Planner

Search our weather history database for the weather conditions in past years. The results will help you decide how hot, cold, wet, or windy it might be!

Date:

Astronomy

Dec. 30, 2011 Rise Set
Actual Time 8:13 AM CST 4:53 PM CST
Civil Twilight 7:38 AM CST 5:27 PM CST
Nautical Twilight 7:00 AM CST 6:05 PM CST
Astronomical Twilight 6:23 AM CST 6:42 PM CST
Moon 11:11 AM CST 11:53 PM CST
Length of Visible Light 9h 49m
Length of Day
8h 39m
Waxing Crescent, 36% of the Moon is Illuminated
Dec 30
Waxing Crescent
Jan 1
First Quarter
Jan 9
Full
Jan 16
Last Quarter
Jan 23
New

Hourly Weather History & Observations

Time (CST) Temp. Windchill Dew Point Humidity Pressure Visibility Wind Dir Wind Speed Gust Speed Precip Events Conditions
12:15 AM 33.8 °F 29.6 °F 33.8 °F 100% 29.51 in 2.0 mi South 4.6 mph - 0.00 in   Overcast
12:35 AM 33.8 °F 29.6 °F 33.8 °F 100% 29.51 in 2.5 mi SSE 4.6 mph - 0.00 in   Overcast
12:55 AM 33.8 °F 29.6 °F 33.8 °F 100% 29.51 in 2.0 mi South 4.6 mph - 0.00 in   Overcast
1:15 AM 33.8 °F 28.6 °F 33.8 °F 100% 29.50 in 0.5 mi South 5.8 mph - 0.00 in   Overcast
1:35 AM 33.8 °F 29.6 °F 33.8 °F 100% 29.50 in 0.2 mi South 4.6 mph - 0.00 in   Overcast
1:55 AM 33.8 °F 30.8 °F 33.8 °F 100% 29.50 in 0.2 mi SSW 3.5 mph - 0.00 in   Overcast
2:15 AM 33.8 °F 30.8 °F 33.8 °F 100% 29.51 in 0.2 mi South 3.5 mph - 0.00 in   Overcast
2:55 AM 33.8 °F - 33.8 °F 100% 29.51 in 0.2 mi Calm Calm - 0.00 in   Overcast
3:15 AM 33.8 °F - 33.8 °F 100% 29.52 in 0.2 mi Calm Calm - 0.00 in   Overcast
3:55 AM 33.8 °F - 33.8 °F 100% 29.53 in 1.5 mi Calm Calm - 0.00 in   Overcast
4:15 AM 33.8 °F 30.8 °F 33.8 °F 100% 29.53 in 1.0 mi West 3.5 mph - 0.00 in   Overcast
4:35 AM 33.8 °F - 33.8 °F 100% 29.54 in 1.2 mi Calm Calm - 0.00 in   Overcast
4:55 AM 32.0 °F - 32.0 °F 100% 29.54 in 1.2 mi Calm Calm - 0.00 in   Overcast
5:15 AM 32.0 °F - 32.0 °F 100% 29.55 in 0.2 mi Calm Calm - 0.00 in   Overcast
5:35 AM 32.0 °F 28.7 °F 32.0 °F 100% 29.56 in 0.5 mi North 3.5 mph - 0.00 in   Overcast
5:55 AM 32.0 °F - 32.0 °F 100% 29.57 in 3.0 mi Calm Calm - 0.00 in   Overcast
6:15 AM 33.8 °F - 33.8 °F 100% 29.58 in 4.0 mi Calm Calm - 0.00 in   Overcast
6:35 AM 33.8 °F - 33.8 °F 100% 29.59 in 5.0 mi Calm Calm - 0.00 in   Overcast
6:55 AM 33.8 °F - 33.8 °F 100% 29.60 in 6.0 mi Calm Calm - 0.00 in   Overcast
7:15 AM 33.8 °F - 33.8 °F 100% 29.61 in 6.0 mi Calm Calm - 0.00 in   Overcast
7:35 AM 33.8 °F 27.0 °F 33.8 °F 100% 29.63 in 7.0 mi NW 8.1 mph - 0.00 in   Overcast
7:55 AM 33.8 °F 26.4 °F 33.8 °F 100% 29.63 in 8.0 mi NNW 9.2 mph - 0.00 in   Overcast
8:35 AM 33.8 °F 25.8 °F 33.8 °F 100% 29.64 in 1.5 mi North 10.4 mph - 0.00 in   Overcast
8:55 AM 32.0 °F 23.0 °F 32.0 °F 100% 29.66 in 1.0 mi NNW 11.5 mph - 0.00 in   Overcast
9:15 AM 32.0 °F - 32.0 °F 100% 29.68 in 0.8 mi Calm Calm - 0.00 in   Overcast
9:35 AM 32.0 °F - 32.0 °F 100% 29.69 in 1.2 mi Calm Calm - 0.00 in   Overcast
9:55 AM 32.0 °F - 32.0 °F 100% 29.69 in 0.8 mi Calm Calm - 0.00 in   Overcast
10:15 AM 32.0 °F - 32.0 °F 100% 29.70 in 3.0 mi Calm Calm - 0.00 in   Overcast
10:35 AM 32.0 °F - 32.0 °F 100% 29.72 in 4.0 mi Calm Calm - 0.00 in   Overcast
10:55 AM 30.2 °F - 30.2 °F 100% 29.73 in 4.0 mi Calm Calm - 0.00 in   Overcast
11:15 AM 30.2 °F - 30.2 °F 100% 29.74 in 5.0 mi Calm Calm - 0.00 in   Overcast
11:35 AM 30.2 °F - 30.2 °F 100% 29.74 in 4.0 mi Calm Calm - 0.00 in   Overcast
12:15 PM 30.2 °F - 30.2 °F 100% 29.73 in 7.0 mi Calm Calm - 0.00 in   Overcast
12:35 PM 30.2 °F - 30.2 °F 100% 29.73 in 8.0 mi Calm Calm - 0.00 in   Overcast
12:55 PM 30.2 °F - 30.2 °F 100% 29.72 in 8.0 mi Calm Calm - 0.00 in   Overcast
1:15 PM 30.2 °F - 30.2 °F 100% 29.73 in 7.0 mi Calm Calm - 0.00 in   Overcast
1:35 PM 30.2 °F - 30.2 °F 100% 29.74 in 8.0 mi Calm Calm - 0.00 in   Overcast
1:55 PM 30.2 °F - 30.2 °F 100% 29.74 in 8.0 mi Calm Calm - 0.00 in   Overcast
2:15 PM 30.2 °F - 30.2 °F 100% 29.74 in 9.0 mi Calm Calm - 0.00 in   Overcast
2:35 PM 30.2 °F - 30.2 °F 100% 29.75 in 10.0 mi Calm Calm - 0.00 in   Overcast
2:55 PM 30.2 °F - 30.2 °F 100% 29.76 in 9.0 mi Calm Calm - 0.00 in   Overcast
3:15 PM 30.2 °F - 30.2 °F 100% 29.76 in 9.0 mi Calm Calm - 0.00 in   Overcast
3:35 PM 30.2 °F - 30.2 °F 100% 29.77 in 8.0 mi Calm Calm - 0.00 in   Overcast
3:55 PM 30.2 °F - 30.2 °F 100% 29.77 in 9.0 mi Calm Calm - 0.00 in   Overcast
4:15 PM 30.2 °F - 30.2 °F 100% 29.77 in 9.0 mi Calm Calm - 0.00 in   Overcast
4:35 PM 30.2 °F - 30.2 °F 100% 29.77 in 9.0 mi Calm Calm - 0.00 in   Overcast
4:55 PM 30.2 °F - 30.2 °F 100% 29.77 in 8.0 mi Calm Calm - 0.00 in   Overcast
5:15 PM 30.2 °F - 30.2 °F 100% 29.78 in 9.0 mi Calm Calm - 0.00 in   Overcast
5:35 PM - - - N/A% 29.78 in 10.0 mi Calm Calm - 0.00 in   Overcast
5:55 PM 28.4 °F - 28.4 °F 100% 29.79 in 8.0 mi Calm Calm - 0.00 in   Overcast
6:35 PM - - - N/A% 29.78 in 8.0 mi Calm Calm - 0.00 in   Overcast
6:55 PM 28.4 °F - 28.4 °F 100% 29.78 in 8.0 mi Calm Calm - 0.00 in   Overcast
7:15 PM 28.4 °F - 28.4 °F 100% 29.78 in 8.0 mi Calm Calm - 0.00 in   Overcast
7:35 PM - - - N/A% 29.77 in 9.0 mi Calm Calm - 0.00 in   Overcast
7:55 PM 30.2 °F - 30.2 °F 100% 29.77 in 9.0 mi Calm Calm - 0.00 in   Overcast
8:15 PM 30.2 °F - 30.2 °F 100% 29.77 in 8.0 mi Calm Calm - 0.00 in   Overcast
8:35 PM 30.2 °F - 30.2 °F 100% 29.77 in 8.0 mi Calm Calm - 0.00 in   Overcast
8:55 PM 30.2 °F - 30.2 °F 100% 29.75 in 7.0 mi Calm Calm - 0.00 in   Overcast
9:15 PM 30.2 °F - 30.2 °F 100% 29.73 in 7.0 mi Calm Calm - 0.00 in   Overcast
9:35 PM 30.2 °F - 30.2 °F 100% 29.72 in 7.0 mi Calm Calm - 0.00 in   Overcast
9:55 PM 30.2 °F - 30.2 °F 100% 29.72 in 8.0 mi Calm Calm - 0.00 in   Overcast
10:15 PM 30.2 °F - 30.2 °F 100% 29.71 in 7.0 mi Calm Calm - 0.00 in   Overcast
10:55 PM 30.2 °F - 30.2 °F 100% 29.72 in 7.0 mi Calm Calm - 0.00 in   Overcast
11:15 PM 30.2 °F - 30.2 °F 100% 29.72 in 7.0 mi Calm Calm - 0.00 in   Overcast
11:35 PM 30.2 °F - 30.2 °F 100% 29.70 in 7.0 mi Calm Calm - 0.00 in   Overcast
11:55 PM - - - N/A% 29.68 in 8.0 mi Calm Calm - 0.00 in   Overcast